BNU-1 (JINGSHI 1) (44529 NORAD) Tracking and Keplerian Element Data

This shows tracking and keplerian element data for the satellite.

Feedback or suggestion? Click here.




ElementValue
Catalog44529
NameBNU-1 (JINGSHI 1)
Epoch Orbit28491
Epoch Day35.14180162
Epoch Year2025
RAAN151.98
Inclination98.5509
Eccentricity0.0014202
Argument of Perigee81.8478
Mean Anonmoly278.4325
Mean Motion14.47468087
Decay Rate1.312E-05
L11 44529U 19059B 25035.14180162 .00001312 00000+0 36925-3 0 9990
L22 44529 98.5509 151.9800 0014202 81.8478 278.4325 14.47468087284915



Live tracking and technical data element details for BNU-1 (JINGSHI 1) (NORAD 44529). BNU-1 (JINGSHI 1) can be tracked NOW for your location showing map with azimuth and elevation plus other details from your city location.







IsCatalogInMostPopularTable: catalog: 44529, numindb: 304
Update: records affected: 1



GetName: 44529 BNU-1 (JINGSHI 1)

Hit Count: updated at: Fri, 16 May 2025 10:48:08 GMT